Simultaneous Nadir Overpasses (SNOs) Predictions

Prediction of SNOs between GOES-15 and METOP-B Satellite Orbit:

Table of predicted SNOs for the next 14.0 days since TLE Epoch: 9/15/2018
Index Date Time (GOES-15) GOES-15 Lat,Lon METOP-B Lat,Lon Distance(km) Time Diff (sec)
1 09/15/2018 18:22:27 -0.23,-135.43 -0.66,-133.48 222.08 80
2 09/17/2018 06:38:46 0.26,-135.40 -0.33,-138.08 305.60 80
3 09/18/2018 06:20:46 0.24,-135.42 0.78,-133.09 266.47 80
4 09/19/2018 18:36:56 -0.26,-135.52 0.21,-137.65 242.81 80
5 09/20/2018 18:18:56 -0.25,-135.54 -0.91,-132.66 329.38 80
6 09/22/2018 06:35:14 0.27,-135.51 -0.13,-137.25 198.65 80
7 09/23/2018 06:17:13 0.26,-135.52 0.99,-132.25 372.74 80
8 09/24/2018 18:33:24 -0.28,-135.61 0.01,-136.82 137.95 80
9 09/25/2018 18:15:23 -0.26,-135.63 -1.11,-131.82 433.62 80
10 09/27/2018 06:31:42 0.29,-135.59 0.08,-136.42 94.75 80
11 09/28/2018 06:13:41 0.27,-135.60 1.20,-131.42 475.87 80




NCC Satellite Simultaneous Nadir Overpasses (SNOs) Prediction Service
